Location: Ahausen
(50.4985°N, 8.2722°E)
Time: 03:26:58
(UTC+00:00)

COSMOS 2406 - Pass Details

Date: 18 September 2020
Orbit: 844 x 863 km, 71.0° (Epoch: 22 October)

Event Time Altitude Azimuth Distance (km) Brightness Sun altitude
Rises 19:02:07 0° 332° (NNW) 3,416 7.2 -14.6°
Reaches altitude 10° 19:04:57 10° 344° (NNW) 2,477 6.1 -15.0°
Maximum altitude 19:09:47 28° 43° (NE) 1,543 4.4 -15.8°
Enters shadow 19:12:19 20° 82° (E) 1,842 4.5 -16.1°
